Terminal Aerodrome Forecast
Issued by NWS

Home | Current Version | Previous Version | Text Only | Print | Product List | Glossary On
Versions: 1 2 3 4 5 6 7 8 9 10 11 12 13 14 15 16 17 18 19 20 21 22 23 24 25 26 27
836
FTUS43 KDVN 060058 AAA
TAFCID
TAF AMD
KCID 060058Z 0601/0624 14010G20KT 4SM BR OVC003
     FM060400 15012KT 2SM BR OVC002
     FM060700 15009KT 1/4SM FG VV001
     FM061300 20005KT 1/2SM FG OVC004
     FM061500 18013KT 5SM BR BKN015
     FM061800 27015G25KT P6SM BKN050=

USA.gov is the U.S. government's official web portal to all federal, state and local government web resources and services.